GW3329 Weather Reports


Display with metric or nautical units.
time (UTC)temp
F
wind
direction
speed
MPH
gust
MPH
rain 1hr
in
rain 24hr
in
rain mn
in
humidity
%
barometer
mb
20260508163750 60 202 1.0 3.0 0.00 0.00 0.00 87 1020.4
20260508163247 60 139 0.0 3.0 0.00 0.00 0.00 88 1020.2
20260508162743 60 179 2.0 2.0 0.00 0.00 0.00 87 1020.6
20260508162240 60 96 0.0 1.0 0.00 0.00 0.00 88 1020.3
20260508161737 59 153 0.0 1.0 0.00 0.00 0.00 88 1020.3
20260508161234 59 100 1.0 2.0 0.00 0.00 0.00 90 1020.2
20260508160732 59 90 0.0 1.0 0.00 0.00 0.00 89 1020.1
20260508160230 59 101 1.0 2.0 0.00 0.00 0.00 89 1020.2
20260508155726 59 164 0.0 1.0 0.00 0.00 0.00 89 1020.1
20260508155223 59 151 0.0 0.0 0.00 0.00 0.00 90 1020.4
20260508154720 59 100 0.0 1.0 0.00 0.00 0.00 90 1020.3
20260508154217 58 145 1.0 2.0 0.00 0.00 0.00 91 1020.3
20260508153714 58 159 0.0 0.0 0.00 0.00 0.00 92 1020.3
20260508153211 58 134 2.0 2.0 0.00 0.00 0.00 91 1020.5
20260508152708 57 80 0.0 2.0 0.00 0.00 0.00 92 1020.5
20260508152203 58 116 0.0 1.0 0.00 0.00 0.00 92 1020.6
20260508151700 57 132 1.0 2.0 0.00 0.00 0.00 92 1020.4
20260508151157 57 74 0.0 0.0 0.00 0.00 0.00 93 1020.4
20260508150654 57 134 0.0 0.0 0.00 0.00 0.00 93 1020.8
20260508150150 57 157 0.0 0.0 0.00 0.00 0.00 94 1020.5
20260508145646 56 107 1.0 1.0 0.00 0.00 0.00 94 1020.8
20260508145142 56 95 0.0 0.0 0.00 0.00 0.00 94 1020.4
20260508144640 56 140 0.0 2.0 0.00 0.00 0.00 95 1020.6
20260508144138 56 127 0.0 0.0 0.00 0.00 0.00 95 1020.6
20260508143635 56 146 0.0 2.0 0.00 0.00 0.00 96 1020.5
20260508143132 56 69 3.0 3.0 0.00 0.00 0.00 96 1020.4
20260508142628 55 97 1.0 4.0 0.00 0.00 0.00 97 1020.5
20260508142125 55 66 4.0 6.0 0.00 0.00 0.00 98 1020.1
20260508141622 55 159 0.0 0.0 0.00 0.00 0.00 98 1020.4
20260508141119 55 159 0.0 0.0 0.00 0.00 0.00 98 1020.4
20260508140616 55 168 0.0 0.0 0.00 0.00 0.00 98 1020.4
20260508140113 55 153 0.0 0.0 0.00 0.00 0.00 98 1020.2
20260508135608 55 158 0.0 0.0 0.00 0.00 0.00 98 1020.1
20260508135104 54 180 1.0 1.0 0.00 0.00 0.00 98 1020.2
20260508134601 55 160 0.0 0.0 0.00 0.00 0.00 98 1020.0
20260508134053 54 169 0.0 0.0 0.00 0.00 0.00 98 1020.1
20260508133550 54 155 0.0 2.0 0.00 0.00 0.00 98 1020.1
20260508133047 54 169 0.0 0.0 0.00 0.00 0.00 98 1020.0
20260508132545 54 170 0.0 0.0 0.00 0.00 0.00 98 1019.9
20260508132041 54 141 0.0 0.0 0.00 0.00 0.00 98 1020.0
20260508131537 53 135 0.0 0.0 0.00 0.00 0.00 98 1019.9
20260508131034 53 127 0.0 0.0 0.00 0.00 0.00 98 1020.1
20260508130531 53 78 0.0 1.0 0.00 0.00 0.00 98 1019.9
20260508130027 53 153 0.0 0.0 0.00 0.00 0.00 98 1020.0
20260508125523 52 143 0.0 0.0 0.00 0.00 0.00 98 1019.8
20260508125021 52 144 0.0 0.0 0.00 0.00 0.00 97 1019.7
20260508124519 52 144 0.0 0.0 0.00 0.00 0.00 97 1019.7
20260508124015 53 144 0.0 0.0 0.00 0.00 0.00 97 1019.7
20260508123514 53 144 0.0 0.0 0.00 0.00 0.00 97 1019.6
20260508123010 53 143 0.0 0.0 0.00 0.00 0.00 97 1019.4
20260508122507 53 143 0.0 0.0 0.00 0.00 0.00 97 1019.6
20260508122004 53 143 0.0 0.0 0.00 0.00 0.00 97 1019.3
20260508121502 54 143 0.0 0.0 0.00 0.00 0.00 97 1019.6
20260508121000 53 158 0.0 0.0 0.00 0.00 0.00 97 1019.4
20260508120457 53 158 0.0 0.0 0.00 0.00 0.00 96 1019.3
20260508115955 54 158 0.0 0.0 0.00 0.00 0.00 96 1019.1
20260508115453 54 158 0.0 0.0 0.00 0.00 0.00 96 1019.2
20260508114949 53 158 0.0 0.0 0.00 0.00 0.00 96 1019.2
20260508114446 54 158 0.0 0.0 0.00 0.00 0.00 96 1019.1
20260508113942 54 158 0.0 0.0 0.00 0.00 0.00 96 1019.1
20260508113440 54 158 0.0 0.0 0.00 0.00 0.00 96 1019.3
20260508112937 54 158 0.0 0.0 0.00 0.00 0.00 95 1019.2
20260508112434 54 158 0.0 0.0 0.00 0.00 0.00 95 1019.2
20260508111930 55 158 0.0 0.0 0.00 0.00 0.00 95 1019.1
20260508111428 55 158 0.0 0.0 0.00 0.00 0.00 95 1019.0
20260508110925 55 158 0.0 0.0 0.00 0.00 0.00 95 1019.1
20260508110423 55 156 0.0 0.0 0.00 0.00 0.00 95 1019.2
20260508105922 55 157 0.0 1.0 0.00 0.00 0.00 94 1019.1
20260508105419 55 163 0.0 2.0 0.00 0.00 0.00 95 1019.1
20260508104916 55 132 0.0 0.0 0.00 0.00 0.00 94 1019.2
20260508104413 55 160 0.0 0.0 0.00 0.00 0.00 94 1019.0
20260508103910 55 127 0.0 0.0 0.00 0.00 0.00 94 1019.1
20260508103407 55 143 0.0 0.0 0.00 0.00 0.00 94 1018.8
20260508102904 55 158 0.0 0.0 0.00 0.00 0.00 93 1019.0
20260508102403 56 161 0.0 0.0 0.00 0.00 0.00 93 1019.1
20260508101859 56 144 0.0 1.0 0.00 0.00 0.00 93 1018.9
20260508101356 56 145 1.0 2.0 0.00 0.00 0.00 93 1019.1
20260508100854 57 142 0.0 2.0 0.00 0.00 0.00 92 1019.0
20260508100353 57 83 1.0 2.0 0.00 0.00 0.00 92 1019.0
20260508095848 57 131 1.0 2.0 0.00 0.00 0.00 92 1019.0
20260508095346 57 171 1.0 2.0 0.00 0.00 0.00 92 1019.0
20260508094842 57 130 0.0 1.0 0.00 0.00 0.00 92 1019.0
20260508094339 57 143 0.0 2.0 0.00 0.00 0.00 92 1019.1
20260508093836 57 144 0.0 1.0 0.00 0.00 0.00 92 1019.0
20260508093334 57 178 1.0 2.0 0.00 0.00 0.00 92 1019.1
20260508092831 57 132 0.0 1.0 0.00 0.00 0.00 91 1018.9
20260508092329 57 119 1.0 1.0 0.00 0.00 0.00 91 1018.9
20260508091827 57 159 1.0 2.0 0.00 0.00 0.00 91 1018.9
20260508091323 57 155 0.0 2.0 0.00 0.00 0.00 91 1019.2
20260508090821 58 178 2.0 2.0 0.00 0.00 0.00 90 1019.0
20260508090320 58 148 0.0 2.0 0.00 0.00 0.00 90 1019.2
20260508085814 58 121 3.0 3.0 0.00 0.00 0.00 89 1019.0
20260508085312 59 143 3.0 4.0 0.00 0.00 0.00 89 1019.1
20260508084808 59 149 1.0 3.0 0.00 0.00 0.00 89 1019.1
20260508084305 59 128 2.0 4.0 0.00 0.00 0.00 89 1019.4
20260508083803 59 153 0.0 3.0 0.00 0.00 0.00 88 1019.3
20260508083300 59 127 2.0 6.0 0.00 0.00 0.00 88 1019.4
20260508082800 59 147 3.0 4.0 0.00 0.00 0.00 88 1019.3
20260508082258 59 109 0.0 2.0 0.00 0.00 0.00 87 1019.6
20260508081755 59 112 1.0 3.0 0.00 0.00 0.00 88 1019.4
20260508081251 59 172 0.0 0.0 0.00 0.00 0.00 88 1019.4
20260508080748 59 137 0.0 0.0 0.00 0.00 0.00 88 1019.6
20260508080247 58 153 0.0 0.0 0.00 0.00 0.00 89 1019.4
20260508075742 58 145 0.0 0.0 0.00 0.00 0.00 89 1019.3
20260508075239 58 163 0.0 0.0 0.00 0.00 0.00 89 1019.6
20260508074737 57 182 0.0 0.0 0.00 0.00 0.00 90 1019.6
20260508074235 57 188 0.0 0.0 0.00 0.00 0.00 91 1019.7
20260508073731 57 186 0.0 0.0 0.00 0.00 0.00 91 1019.7
20260508073230 56 187 0.0 0.0 0.00 0.00 0.00 91 1019.7
20260508072725 56 187 0.0 0.0 0.00 0.00 0.00 91 1019.4
20260508072222 56 188 0.0 0.0 0.00 0.00 0.00 90 1019.7
20260508071719 56 188 0.0 0.0 0.00 0.00 0.00 90 1019.7
20260508071218 57 188 0.0 0.0 0.00 0.00 0.00 89 1019.3
20260508070715 57 188 0.0 0.0 0.00 0.00 0.00 89 1019.4
20260508070214 57 188 0.0 0.0 0.00 0.00 0.00 88 1019.2
20260508065710 58 189 0.0 0.0 0.00 0.00 0.00 87 1019.4
20260508065209 58 189 0.0 0.0 0.00 0.00 0.00 87 1019.4
20260508064706 59 188 0.0 0.0 0.00 0.00 0.00 86 1019.3
20260508064204 59 272 1.0 6.0 0.00 0.00 0.00 86 1019.1
20260508063701 58 190 2.0 3.0 0.00 0.00 0.00 87 1019.0
20260508063159 57 196 0.0 1.0 0.00 0.00 0.00 88 1019.1
20260508062656 57 180 0.0 0.0 0.00 0.00 0.00 88 1019.1
20260508062153 57 190 0.0 0.0 0.00 0.00 0.00 88 1019.2
20260508061649 57 178 0.0 0.0 0.00 0.00 0.00 88 1018.9
20260508061147 57 179 0.0 0.0 0.00 0.00 0.00 88 1018.9
20260508060644 57 180 0.0 0.0 0.00 0.00 0.00 89 1019.0
20260508060141 57 180 0.0 0.0 0.00 0.00 0.00 88 1019.1
20260508055637 58 181 0.0 0.0 0.00 0.00 0.00 87 1019.0
20260508055134 58 177 0.0 0.0 0.00 0.00 0.00 87 1019.1
20260508054630 59 164 0.0 0.0 0.00 0.00 0.00 86 1018.9
20260508054128 59 164 0.0 0.0 0.00 0.00 0.00 86 1019.2
20260508053624 59 184 0.0 0.0 0.00 0.00 0.00 86 1018.8
20260508053122 59 160 0.0 0.0 0.00 0.00 0.00 86 1019.1
20260508052619 58 174 0.0 0.0 0.00 0.00 0.00 87 1018.9
20260508052116 58 153 0.0 0.0 0.00 0.00 0.00 87 1019.1
20260508051612 58 147 0.0 0.0 0.00 0.00 0.00 87 1018.9
20260508051108 58 153 0.0 0.0 0.00 0.00 0.00 88 1018.8
20260508050604 58 153 0.0 0.0 0.00 0.00 0.00 87 1018.9
20260508045558 58 149 0.0 0.0 0.00 0.00 0.00 87 1018.8
20260508045056 58 149 0.0 0.0 0.00 0.00 0.00 87 1018.9
20260508044553 58 149 0.0 0.0 0.00 0.00 0.00 86 1019.0
20260508044049 59 153 0.0 0.0 0.00 0.00 0.00 85 1019.0
20260508043545 59 152 0.0 0.0 0.00 0.00 0.00 85 1018.8
20260508043043 59 146 0.0 0.0 0.00 0.00 0.00 84 1019.0
20260508042539 60 158 0.0 0.0 0.00 0.00 0.00 84 1018.7
20260508042037 60 173 0.0 0.0 0.00 0.00 0.00 84 1018.6
20260508041533 60 221 0.0 0.0 0.00 0.00 0.00 84 1018.7
20260508041030 60 200 0.0 0.0 0.00 0.00 0.00 84 1018.6
20260508040527 60 201 0.0 0.0 0.00 0.00 0.00 84 1018.5
20260508040024 60 202 0.0 0.0 0.00 0.00 0.00 83 1018.6
20260508035521 60 213 0.0 0.0 0.00 0.00 0.00 83 1018.6
20260508035018 60 161 0.0 0.0 0.00 0.00 0.00 83 1018.5
20260508034515 60 178 0.0 0.0 0.00 0.00 0.00 83 1018.7
20260508034012 60 159 0.0 1.0 0.00 0.00 0.00 82 1018.4
20260508033510 60 172 0.0 0.0 0.00 0.00 0.00 82 1018.4
20260508033008 61 210 0.0 0.0 0.00 0.00 0.00 81 1018.3
20260508032504 61 191 0.0 0.0 0.00 0.00 0.00 81 1018.2
20260508032002 61 162 0.0 0.0 0.00 0.00 0.00 80 1018.3
20260508031459 61 167 0.0 0.0 0.00 0.00 0.00 80 1018.1
20260508030954 62 157 0.0 0.0 0.00 0.00 0.00 79 1018.0
20260508030451 62 168 0.0 0.0 0.00 0.00 0.00 78 1018.1
20260508025949 62 221 0.0 0.0 0.00 0.00 0.00 78 1018.1
20260508025445 62 126 0.0 0.0 0.00 0.00 0.00 78 1018.0
20260508024942 63 140 0.0 0.0 0.00 0.00 0.00 77 1017.7
20260508024438 63 185 0.0 0.0 0.00 0.00 0.00 77 1018.2
20260508023935 63 166 0.0 0.0 0.00 0.00 0.00 76 1018.0
20260508023432 64 172 1.0 1.0 0.00 0.00 0.00 75 1018.0
20260508022929 65 170 0.0 3.0 0.00 0.00 0.00 74 1017.9
20260508022425 65 139 0.0 0.0 0.00 0.00 0.00 73 1017.8
20260508021921 65 181 1.0 2.0 0.00 0.00 0.00 72 1017.8
20260508021418 66 141 0.0 0.0 0.00 0.00 0.00 72 1017.7
20260508020914 66 162 0.0 1.0 0.00 0.00 0.00 71 1017.7
20260508020412 66 169 0.0 2.0 0.00 0.00 0.00 70 1017.9
20260508015909 67 148 0.0 2.0 0.00 0.00 0.00 70 1017.9
20260508015407 67 118 0.0 1.0 0.00 0.00 0.00 69 1017.9
20260508014903 68 103 0.0 4.0 0.00 0.00 0.00 68 1017.8
20260508014400 69 134 0.0 0.0 0.00 0.00 0.00 66 1017.9
20260508013855 69 161 0.0 1.0 0.00 0.00 0.00 65 1017.7
20260508013352 68 238 0.0 2.0 0.00 0.00 0.00 66 1017.6
20260508012849 69 287 2.0 3.0 0.00 0.00 0.00 65 1017.6
20260508012346 69 175 0.0 4.0 0.00 0.00 0.00 65 1017.8
20260508011844 69 2 1.0 2.0 0.00 0.00 0.00 65 1017.7
20260508011342 70 147 1.0 3.0 0.00 0.00 0.00 64 1017.7
20260508010838 70 81 0.0 2.0 0.00 0.00 0.00 63 1017.5
20260508010336 70 81 1.0 4.0 0.00 0.00 0.00 64 1017.7
20260508005833 71 63 0.0 1.0 0.00 0.00 0.00 63 1017.7
20260508005330 70 100 1.0 3.0 0.00 0.00 0.00 63 1017.6
20260508004826 70 17 2.0 2.0 0.00 0.00 0.00 63 1017.6
20260508004322 70 175 1.0 3.0 0.00 0.00 0.00 63 1017.8
20260508003818 71 32 2.0 4.0 0.00 0.00 0.00 62 1017.9
20260508003316 72 114 1.0 2.0 0.00 0.00 0.00 60 1017.6
20260508002813 72 158 1.0 3.0 0.00 0.00 0.00 60 1017.7
20260508002309 72 131 1.0 3.0 0.00 0.00 0.00 61 1017.7
20260508001806 72 4 2.0 4.0 0.00 0.00 0.00 60 1017.6
20260508001301 72 12 1.0 7.0 0.00 0.00 0.00 59 1017.7
20260508000758 73 318 2.0 4.0 0.00 0.00 0.00 59 1017.8
20260508000257 74 259 0.0 2.0 0.00 0.00 0.00 57 1017.7
20260507235751 73 204 0.0 6.0 0.00 0.00 0.00 57 1017.9
20260507235249 74 60 1.0 3.0 0.00 0.00 0.00 56 1017.6
20260507234746 74 208 2.0 4.0 0.00 0.00 0.00 56 1017.7
20260507234242 75 204 2.0 4.0 0.00 0.00 0.00 56 1017.7
20260507233738 75 195 2.0 4.0 0.00 0.00 0.00 55 1017.8
20260507233237 74 178 1.0 4.0 0.00 0.00 0.00 56 1017.8
20260507232734 75 289 0.0 7.0 0.00 0.00 0.00 56 1017.7
20260507232231 75 169 2.0 4.0 0.00 0.00 0.00 56 1017.8
20260507231727 75 179 2.0 7.0 0.00 0.00 0.00 56 1017.7
20260507231224 74 267 2.0 6.0 0.00 0.00 0.00 57 1017.6
20260507230721 75 275 4.0 6.0 0.00 0.00 0.00 55 1017.8
20260507230219 75 169 1.0 3.0 0.00 0.00 0.00 55 1017.7
20260507225717 75 58 2.0 2.0 0.00 0.00 0.00 55 1017.9
20260507225214 76 40 0.0 3.0 0.00 0.00 0.00 54 1018.0
20260507224710 75 38 1.0 3.0 0.00 0.00 0.00 55 1017.8
20260507224207 75 349 0.0 4.0 0.00 0.00 0.00 54 1018.1
20260507223703 76 246 4.0 7.0 0.00 0.00 0.00 53 1018.0
20260507223200 75 210 2.0 4.0 0.00 0.00 0.00 54 1018.2
20260507222657 76 200 2.0 6.0 0.00 0.00 0.00 54 1018.1
20260507222153 75 133 1.0 3.0 0.00 0.00 0.00 56 1018.2
20260507221650 75 3 4.0 4.0 0.00 0.00 0.00 55 1018.1
20260507221146 75 223 0.0 6.0 0.00 0.00 0.00 56 1018.2
20260507220643 74 205 1.0 6.0 0.00 0.00 0.00 57 1018.3
20260507220142 75 280 4.0 7.0 0.00 0.00 0.00 56 1018.3
20260507215637 74 341 2.0 8.0 0.00 0.00 0.00 57 1018.4
20260507215135 74 251 3.0 8.0 0.00 0.00 0.00 56 1018.5
20260507214632 75 148 0.0 9.0 0.00 0.00 0.00 58 1018.5
20260507214128 76 292 2.0 8.0 0.00 0.00 0.00 56 1018.8
20260507213625 75 306 0.0 3.0 0.00 0.00 0.00 57 1018.8
20260507213122 75 261 4.0 8.0 0.00 0.00 0.00 57 1018.8
20260507212618 75 193 3.0 6.0 0.00 0.00 0.00 58 1018.6
20260507212114 75 273 2.0 6.0 0.00 0.00 0.00 57 1018.7
20260507211611 75 166 1.0 4.0 0.00 0.00 0.00 57 1018.6
20260507211107 76 254 0.0 1.0 0.00 0.00 0.00 57 1018.8
20260507210605 76 202 1.0 10.0 0.00 0.00 0.00 57 1018.8
20260507205558 76 63 1.0 2.0 0.00 0.00 0.00 57 1018.8
20260507205054 76 174 1.0 7.0 0.00 0.00 0.00 57 1018.9
20260507204550 76 104 0.0 7.0 0.00 0.00 0.00 57 1018.9
20260507204048 76 37 0.0 4.0 0.00 0.00 0.00 58 1019.1
20260507203546 77 190 4.0 6.0 0.00 0.00 0.00 57 1019.0
20260507203043 76 267 2.0 3.0 0.00 0.00 0.00 58 1019.0
20260507202539 76 163 1.0 4.0 0.00 0.00 0.00 58 1019.2
20260507202035 76 269 2.0 7.0 0.00 0.00 0.00 58 1019.2
20260507201531 76 12 3.0 6.0 0.00 0.00 0.00 58 1019.1
20260507201027 76 228 3.0 7.0 0.00 0.00 0.00 58 1019.3
20260507200523 76 285 5.0 8.0 0.00 0.00 0.00 59 1018.9
20260507200019 76 224 1.0 6.0 0.00 0.00 0.00 58 1019.0
20260507195516 77 264 4.0 7.0 0.00 0.00 0.00 58 1019.3
20260507195014 77 266 4.0 6.0 0.00 0.00 0.00 57 1019.3
20260507194510 77 140 1.0 6.0 0.00 0.00 0.00 59 1019.3
20260507194006 78 106 1.0 6.0 0.00 0.00 0.00 57 1019.1
20260507193504 77 194 1.0 4.0 0.00 0.00 0.00 57 1019.3
20260507193000 77 210 3.0 4.0 0.00 0.00 0.00 56 1019.0
20260507192456 78 73 0.0 4.0 0.00 0.00 0.00 56 1019.4
20260507191953 78 248 4.0 6.0 0.00 0.00 0.00 55 1019.3
20260507191449 78 161 1.0 3.0 0.00 0.00 0.00 55 1019.3
20260507190946 78 205 2.0 4.0 0.00 0.00 0.00 54 1019.4
20260507190443 78 143 1.0 3.0 0.00 0.00 0.00 53 1019.4
20260507185942 77 207 1.0 6.0 0.00 0.00 0.00 56 1019.6
20260507185439 78 354 2.0 3.0 0.00 0.00 0.00 53 1019.4
20260507184936 78 224 2.0 7.0 0.00 0.00 0.00 53 1019.6
20260507184434 78 186 2.0 4.0 0.00 0.00 0.00 53 1019.6
20260507183932 78 158 0.0 2.0 0.00 0.00 0.00 53 1019.7
20260507183428 77 54 1.0 3.0 0.00 0.00 0.00 55 1019.8
20260507182925 76 209 2.0 6.0 0.00 0.00 0.00 54 1019.8
20260507182421 75 190 2.0 4.0 0.00 0.00 0.00 56 1019.7
20260507181917 75 266 3.0 4.0 0.00 0.00 0.00 55 1019.7
20260507181414 76 170 0.0 1.0 0.00 0.00 0.00 55 1019.7
20260507180910 75 213 2.0 4.0 0.00 0.00 0.00 56 1019.9
20260507180407 74 143 2.0 3.0 0.00 0.00 0.00 58 1019.8
20260507175903 74 327 2.0 3.0 0.00 0.00 0.00 58 1019.6
20260507175400 75 254 3.0 6.0 0.00 0.00 0.00 58 1019.9
20260507174858 74 46 1.0 4.0 0.00 0.00 0.00 58 1019.9
20260507174355 73 102 0.0 2.0 0.00 0.00 0.00 59 1020.0
20260507173852 73 282 2.0 4.0 0.00 0.00 0.00 59 1019.9
20260507173349 73 155 1.0 4.0 0.00 0.00 0.00 58 1019.9
20260507172845 74 354 1.0 4.0 0.00 0.00 0.00 57 1019.9
20260507172342 75 151 1.0 3.0 0.00 0.00 0.00 56 1019.7
20260507171838 74 256 2.0 7.0 0.00 0.00 0.00 57 1019.8
20260507171335 73 131 0.0 3.0 0.00 0.00 0.00 59 1020.1
20260507170832 71 192 2.0 3.0 0.00 0.00 0.00 61 1020.0
20260507170329 71 180 0.0 3.0 0.00 0.00 0.00 62 1019.9
20260507165824 70 183 1.0 3.0 0.00 0.00 0.00 64 1020.0
20260507165321 70 255 2.0 3.0 0.00 0.00 0.00 63 1020.2
20260507164817 70 194 2.0 3.0 0.00 0.00 0.00 64 1020.0
20260507164314 70 236 1.0 2.0 0.00 0.00 0.00 64 1020.2